• In Hungary
  • List of Countries
  • For 7 days
  • Water Temperature
  • Satellite Maps
  • Weather Map
  • News
  • Weather Widgets
  • user-avatar
    Login

    Hourly Weather Vanadzor

    Today, 26 September, Tuesday

    Time Temperature Precipitation Wind Pressure Humidity
    00:00 +12°C° 0 mm 1 mps 638 mmHg 90%
    01:00 +12°C° 0 mm 1 mps 638 mmHg 91%
    02:00 +12°C° 0 mm 1 mps 638 mmHg 91%
    03:00 +12°C° 0 mm 1 mps 638 mmHg 91%
    04:00 +11°C° 0 mm 1 mps 638 mmHg 91%
    05:00 +11°C° 0 mm 1 mps 638 mmHg 91%
    06:00 +11°C° 0 mm 1 mps 637 mmHg 91%
    07:00 +13°C° 0 mm 1 mps 638 mmHg 82%
    08:00 +14°C° 0 mm 1 mps 638 mmHg 74%
    09:00 +16°C° 0 mm 1 mps 638 mmHg 65%
    10:00 +17°C° 0 mm 2 mps 638 mmHg 58%
    11:00 +19°C° 0 mm 2 mps 639 mmHg 52%
    12:00 +20°C° 0 mm 2 mps 639 mmHg 45%
    13:00 +20°C° 0 mm 2 mps 639 mmHg 44%
    14:00 +21°C° 0 mm 2 mps 638 mmHg 44%
    15:00 +21°C° 0 mm 2 mps 638 mmHg 43%
    16:00 +19°C° 0.1 mm 2 mps 638 mmHg 52%
    17:00 +17°C° 0.1 mm 2 mps 637 mmHg 62%
    18:00 +15°C° 0.1 mm 2 mps 637 mmHg 71%
    19:00 +15°C° 0.1 mm 2 mps 637 mmHg 76%
    20:00 +14°C° 0.1 mm 2 mps 637 mmHg 82%
    21:00 +14°C° 0.1 mm 2 mps 637 mmHg 87%
    22:00 +14°C° 0.1 mm 2 mps 637 mmHg 88%
    23:00 +14°C° 0.1 mm 2 mps 637 mmHg 89%

    Tomorrow, 27 September, Wednesday

    Time Temperature Precipitation Wind Pressure Humidity
    00:00 +13°C° 0.1 mm 2 mps 637 mmHg 90%
    01:00 +13°C° 0.1 mm 2 mps 637 mmHg 91%
    02:00 +13°C° 0.1 mm 2 mps 637 mmHg 92%
    03:00 +13°C° 0.1 mm 2 mps 637 mmHg 93%
    04:00 +12°C° 0.1 mm 1 mps 636 mmHg 93%
    05:00 +12°C° 0.1 mm 1 mps 636 mmHg 93%
    06:00 +12°C° 0.1 mm 1 mps 636 mmHg 93%
    07:00 +13°C° 0.2 mm 1 mps 636 mmHg 86%
    08:00 +14°C° 0.2 mm 1 mps 637 mmHg 79%
    09:00 +15°C° 0.2 mm 1 mps 637 mmHg 71%
    10:00 +16°C° 0.2 mm 2 mps 637 mmHg 67%
    11:00 +17°C° 0.2 mm 2 mps 637 mmHg 63%
    12:00 +18°C° 0.2 mm 2 mps 637 mmHg 59%
    13:00 +18°C° 0.6 mm 2 mps 637 mmHg 61%
    14:00 +18°C° 0.6 mm 2 mps 636 mmHg 62%
    15:00 +17°C° 0.6 mm 2 mps 636 mmHg 64%
    16:00 +16°C° 0.9 mm 2 mps 636 mmHg 71%
    17:00 +15°C° 0.9 mm 2 mps 636 mmHg 79%
    18:00 +13°C° 0.9 mm 2 mps 635 mmHg 87%
    19:00 +13°C° 0.4 mm 2 mps 636 mmHg 88%
    20:00 +13°C° 0.4 mm 2 mps 636 mmHg 90%
    21:00 +12°C° 0.4 mm 2 mps 636 mmHg 91%
    22:00 +12°C° 0.1 mm 2 mps 636 mmHg 92%
    23:00 +12°C° 0.1 mm 2 mps 636 mmHg 93%

    Day after tomorrow, 28 September, Thursday

    Time Temperature Precipitation Wind Pressure Humidity
    00:00 +10°C° 0.1 mm 2 mps 636 mmHg 94%
    01:00 +10°C° 0.2 mm 2 mps 636 mmHg 94%
    02:00 +10°C° 0.2 mm 2 mps 636 mmHg 94%
    03:00 +10°C° 0.2 mm 2 mps 636 mmHg 94%
    04:00 +11°C° 0.1 mm 1 mps 636 mmHg 94%
    05:00 +11°C° 0.1 mm 1 mps 636 mmHg 95%
    06:00 +10°C° 0.1 mm 1 mps 636 mmHg 95%
    07:00 +11°C° 0.1 mm 1 mps 636 mmHg 90%
    08:00 +12°C° 0.1 mm 1 mps 637 mmHg 86%
    09:00 +13°C° 0.1 mm 1 mps 637 mmHg 81%
    10:00 +13°C° 0.2 mm 2 mps 637 mmHg 80%
    11:00 +13°C° 0.2 mm 2 mps 637 mmHg 78%
    12:00 +14°C° 0.2 mm 2 mps 638 mmHg 76%
    13:00 +14°C° 0.4 mm 2 mps 637 mmHg 77%
    14:00 +14°C° 0.4 mm 2 mps 637 mmHg 77%
    15:00 +13°C° 0.4 mm 2 mps 637 mmHg 78%
    16:00 +12°C° 0.4 mm 2 mps 637 mmHg 83%
    17:00 +10°C° 0.4 mm 3 mps 637 mmHg 87%
    18:00 +9°C° 0.4 mm 3 mps 637 mmHg 92%
    19:00 +9°C° 0.2 mm 3 mps 637 mmHg 92%
    20:00 +9°C° 0.2 mm 3 mps 638 mmHg 92%
    21:00 +9°C° 0.2 mm 2 mps 638 mmHg 92%
    22:00 +9°C° 0.1 mm 2 mps 638 mmHg 92%
    23:00 +8°C° 0.1 mm 2 mps 638 mmHg 92%

    29 September, Friday

    Time Temperature Precipitation Wind Pressure Humidity
    00:00 +8°C° 0.1 mm 2 mps 638 mmHg 92%
    01:00 +8°C° 0.1 mm 2 mps 638 mmHg 93%
    02:00 +8°C° 0.1 mm 2 mps 638 mmHg 93%
    03:00 +8°C° 0.1 mm 2 mps 638 mmHg 94%
    04:00 +8°C° 0 mm 2 mps 638 mmHg 94%
    05:00 +7°C° 0 mm 2 mps 638 mmHg 94%
    06:00 +7°C° 0 mm 2 mps 638 mmHg 94%
    07:00 +8°C° 0 mm 2 mps 638 mmHg 89%
    08:00 +9°C° 0 mm 2 mps 638 mmHg 85%
    09:00 +10°C° 0 mm 2 mps 638 mmHg 80%
    10:00 +12°C° 0 mm 2 mps 638 mmHg 77%
    11:00 +13°C° 0 mm 2 mps 638 mmHg 74%
    12:00 +13°C° 0 mm 2 mps 638 mmHg 71%
    13:00 +13°C° 0.1 mm 2 mps 637 mmHg 72%
    14:00 +13°C° 0.1 mm 2 mps 637 mmHg 72%
    15:00 +13°C° 0.1 mm 2 mps 636 mmHg 73%
    16:00 +12°C° 0.3 mm 2 mps 636 mmHg 78%
    17:00 +10°C° 0.3 mm 2 mps 636 mmHg 82%
    18:00 +9°C° 0.3 mm 2 mps 635 mmHg 87%
    19:00 +9°C° 0.4 mm 2 mps 636 mmHg 89%
    20:00 +9°C° 0.4 mm 2 mps 636 mmHg 91%
    21:00 +8°C° 0.4 mm 2 mps 636 mmHg 92%
    22:00 +8°C° 0.2 mm 2 mps 636 mmHg 93%
    23:00 +8°C° 0.2 mm 2 mps 635 mmHg 93%

    30 September, Saturday

    Time Temperature Precipitation Wind Pressure Humidity
    00:00 +8°C° 0.2 mm 2 mps 635 mmHg 94%
    01:00 +8°C° 0 mm 2 mps 635 mmHg 94%
    02:00 +8°C° 0 mm 2 mps 635 mmHg 94%
    03:00 +8°C° 0 mm 2 mps 635 mmHg 94%
    04:00 +9°C° 0 mm 1 mps 635 mmHg 94%
    05:00 +9°C° 0 mm 1 mps 634 mmHg 93%
    06:00 +8°C° 0 mm 1 mps 634 mmHg 93%
    07:00 +10°C° 0 mm 1 mps 635 mmHg 86%
    08:00 +10°C° 0 mm 2 mps 635 mmHg 80%
    09:00 +12°C° 0 mm 2 mps 635 mmHg 73%
    10:00 +13°C° 0.3 mm 2 mps 635 mmHg 72%
    11:00 +13°C° 0.3 mm 2 mps 635 mmHg 71%
    12:00 +13°C° 0.3 mm 2 mps 635 mmHg 69%
    13:00 +13°C° 0.5 mm 2 mps 634 mmHg 71%
    14:00 +13°C° 0.5 mm 2 mps 634 mmHg 73%
    15:00 +13°C° 0.5 mm 2 mps 634 mmHg 75%
    16:00 +12°C° 0.7 mm 1 mps 634 mmHg 79%
    17:00 +12°C° 0.7 mm 1 mps 633 mmHg 84%
    18:00 +11°C° 0.7 mm 1 mps 633 mmHg 88%
    19:00 +11°C° 0.3 mm 1 mps 633 mmHg 90%
    20:00 +10°C° 0.3 mm 1 mps 634 mmHg 91%
    21:00 +10°C° 0.3 mm 1 mps 634 mmHg 93%
    22:00 +10°C° 0 mm 1 mps 634 mmHg 93%
    23:00 +10°C° 0 mm 1 mps 634 mmHg 93%

    1 October, Sunday

    Time Temperature Precipitation Wind Pressure Humidity
    00:00 +9°C° 0 mm 1 mps 634 mmHg 94%
    01:00 +9°C° 0 mm 1 mps 634 mmHg 93%
    02:00 +9°C° 0 mm 1 mps 634 mmHg 91%
    03:00 +9°C° 0 mm 1 mps 634 mmHg 90%
    04:00 +9°C° 0 mm 1 mps 634 mmHg 89%
    05:00 +8°C° 0 mm 1 mps 634 mmHg 87%
    06:00 +8°C° 0 mm 1 mps 635 mmHg 86%
    07:00 +10°C° 0 mm 2 mps 635 mmHg 77%
    08:00 +13°C° 0 mm 2 mps 636 mmHg 69%
    09:00 +15°C° 0 mm 2 mps 637 mmHg 60%
    10:00 +16°C° 0 mm 2 mps 637 mmHg 56%
    11:00 +17°C° 0 mm 2 mps 637 mmHg 52%
    12:00 +18°C° 0 mm 3 mps 637 mmHg 48%
    13:00 +18°C° 0.1 mm 3 mps 637 mmHg 48%
    14:00 +18°C° 0.1 mm 2 mps 637 mmHg 48%
    15:00 +18°C° 0.1 mm 2 mps 636 mmHg 49%
    16:00 +16°C° 0.4 mm 2 mps 636 mmHg 58%
    17:00 +15°C° 0.4 mm 1 mps 636 mmHg 67%
    18:00 +13°C° 0.4 mm 1 mps 635 mmHg 76%
    19:00 +13°C° 0.4 mm 1 mps 635 mmHg 79%
    20:00 +12°C° 0.4 mm 1 mps 635 mmHg 83%
    21:00 +12°C° 0.4 mm 1 mps 635 mmHg 87%
    22:00 +11°C° 0.2 mm 1 mps 635 mmHg 88%
    23:00 +11°C° 0.2 mm 1 mps 635 mmHg 89%
    Show more